Satellite-Ground Cal/Val Site Overpasses Predictions

Prediction of Satellite NPP Overpassing Cal/Val Site: Antarctic Dome C

Ground Cal/Val Site Location: Latitude: -75.10, Longitude: 123.35; Satellite-Ground Site NADIR distance within 100 km.

Table of predicted overpasses for the next 14.0 days since TLE Epoch: 5/29/2021
Interval Starting Time Ending Time Minimum Distance Time Minimum Distance (km)
1 05/29/2021 07:31:02 05/29/2021 07:31:32 05/29/2021 07:31:17 1.90
2 06/01/2021 14:54:32 06/01/2021 14:55:01 06/01/2021 14:54:47 21.52
3 06/02/2021 14:35:50 06/02/2021 14:36:05 06/02/2021 14:35:58 85.48
4 06/03/2021 07:37:23 06/03/2021 07:37:51 06/03/2021 07:37:37 34.38
5 06/04/2021 07:18:38 06/04/2021 07:18:57 06/04/2021 07:18:48 75.68
6 06/06/2021 15:00:54 06/06/2021 15:01:18 06/06/2021 15:01:06 58.71
7 06/07/2021 14:42:05 06/07/2021 14:42:30 06/07/2021 14:42:18 50.40
8 06/08/2021 07:43:46 06/08/2021 07:44:06 06/08/2021 07:43:56 69.82
9 06/09/2021 07:24:54 06/09/2021 07:25:21 06/09/2021 07:25:08 38.03
